Time,TemperatureF,DewpointF,PressureIn,WindDirection,WindDirectionDegrees,WindSpeedMPH,WindSpeedGustMPH,Humidity,HourlyPrecipIn,Conditions,Clouds,dailyrainin,SoftwareType,DateUTC
2013-05-02 00:00:00,63.5,34.0,30.27,ESE,112,0.0,0.0,33,0.00,,,0.00,meteohub,2013-05-02 04:00:00,
2013-05-02 00:01:00,63.5,34.0,30.27,ESE,112,0.0,0.0,33,0.00,,,0.00,meteohub,2013-05-02 04:01:00,
2013-05-02 00:02:00,63.5,34.0,30.27,ESE,112,0.0,0.0,33,0.00,,,0.00,meteohub,2013-05-02 04:02:00,
2013-05-02 00:07:00,63.3,33.8,30.27,ESE,112,0.0,0.0,33,0.00,,,0.00,meteohub,2013-05-02 04:07:00,
2013-05-02 00:09:00,63.3,33.8,30.27,ESE,112,0.0,0.0,33,0.00,,,0.00,meteohub,2013-05-02 04:09:00,
2013-05-02 00:14:00,63.0,32.7,30.27,ESE,112,0.0,0.0,32,0.00,,,0.00,meteohub,2013-05-02 04:14:00,
2013-05-02 00:19:00,62.8,32.5,30.27,ENE,68,0.0,0.0,32,0.00,,,0.00,meteohub,2013-05-02 04:19:00,
2013-05-02 00:24:00,62.6,33.8,30.27,SSE,158,0.0,0.0,34,0.00,,,0.00,meteohub,2013-05-02 04:24:00,
2013-05-02 00:29:00,62.6,33.1,30.27,East,90,0.0,0.0,33,0.00,,,0.00,meteohub,2013-05-02 04:29:00,
2013-05-02 00:34:00,62.4,33.8,30.27,ENE,68,0.0,0.0,34,0.00,,,0.00,meteohub,2013-05-02 04:34:00,
2013-05-02 00:40:00,62.4,33.8,30.27,SSE,158,0.0,0.0,34,0.00,,,0.00,meteohub,2013-05-02 04:40:00,
2013-05-02 00:45:00,62.4,33.8,30.27,SSE,158,0.0,0.0,34,0.00,,,0.00,meteohub,2013-05-02 04:45:00,
2013-05-02 00:50:00,62.1,33.4,30.24,East,90,0.0,0.0,34,0.00,,,0.00,meteohub,2013-05-02 04:50:00,
2013-05-02 00:55:00,62.1,32.7,30.24,ESE,112,0.0,0.0,33,0.00,,,0.00,meteohub,2013-05-02 04:55:00,
2013-05-02 01:00:00,61.9,32.5,30.24,ESE,112,0.0,0.0,33,0.00,,,0.00,meteohub,2013-05-02 05:00:00,
2013-05-02 01:05:00,61.7,33.1,30.24,ESE,112,0.0,0.0,34,0.00,,,0.00,meteohub,2013-05-02 05:05:00,
2013-05-02 01:10:00,61.3,32.7,30.24,ESE,112,0.0,0.0,34,0.00,,,0.00,meteohub,2013-05-02 05:10:00,
2013-05-02 01:15:00,61.2,32.5,30.24,ESE,112,0.0,0.0,34,0.00,,,0.00,meteohub,2013-05-02 05:15:00,
2013-05-02 01:20:00,61.0,32.5,30.27,ESE,112,0.0,0.0,34,0.00,,,0.00,meteohub,2013-05-02 05:20:00,
2013-05-02 01:25:00,60.8,32.4,30.27,ESE,112,0.0,0.0,34,0.00,,,0.00,meteohub,2013-05-02 05:25:00,
2013-05-02 01:30:00,60.6,33.6,30.24,ESE,112,0.0,0.0,36,0.00,,,0.00,meteohub,2013-05-02 05:30:00,
2013-05-02 01:35:00,60.3,34.0,30.24,ESE,112,0.0,0.0,37,0.00,,,0.00,meteohub,2013-05-02 05:35:00,
2013-05-02 01:40:00,60.1,33.8,30.24,ESE,112,0.0,0.0,37,0.00,,,0.00,meteohub,2013-05-02 05:40:00,
2013-05-02 01:46:00,59.9,33.6,30.27,ESE,112,0.0,0.0,37,0.00,,,0.00,meteohub,2013-05-02 05:46:00,
2013-05-02 01:51:00,59.7,33.4,30.27,ESE,112,0.0,0.0,37,0.00,,,0.00,meteohub,2013-05-02 05:51:00,
2013-05-02 01:56:00,59.4,32.4,30.27,ESE,112,0.0,0.0,36,0.00,,,0.00,meteohub,2013-05-02 05:56:00,
2013-05-02 02:01:00,59.4,33.1,30.27,ESE,112,0.0,0.0,37,0.00,,,0.00,meteohub,2013-05-02 06:01:00,
2013-05-02 02:06:00,59.2,32.9,30.27,ESE,112,0.0,0.0,37,0.00,,,0.00,meteohub,2013-05-02 06:06:00,
2013-05-02 02:11:00,58.8,33.3,30.27,ESE,112,0.0,0.0,38,0.00,,,0.00,meteohub,2013-05-02 06:11:00,
2013-05-02 02:16:00,58.6,33.1,30.27,ESE,112,0.0,0.0,38,0.00,,,0.00,meteohub,2013-05-02 06:16:00,
2013-05-02 02:21:00,58.5,32.9,30.27,ESE,112,0.0,0.0,38,0.00,,,0.00,meteohub,2013-05-02 06:21:00,
2013-05-02 02:26:00,58.3,32.9,30.27,ESE,112,0.0,0.0,38,0.00,,,0.00,meteohub,2013-05-02 06:26:00,
2013-05-02 02:31:00,58.1,32.7,30.27,ESE,112,0.0,0.0,38,0.00,,,0.00,meteohub,2013-05-02 06:31:00,
2013-05-02 02:36:00,58.1,33.3,30.27,ESE,112,0.0,0.0,39,0.00,,,0.00,meteohub,2013-05-02 06:36:00,
2013-05-02 02:41:00,57.9,33.1,30.27,ESE,112,0.0,0.0,39,0.00,,,0.00,meteohub,2013-05-02 06:41:00,
2013-05-02 02:46:00,57.9,33.8,30.27,ESE,112,0.0,0.0,40,0.00,,,0.00,meteohub,2013-05-02 06:46:00,
2013-05-02 02:52:00,57.7,33.6,30.27,ESE,112,0.0,0.0,40,0.00,,,0.00,meteohub,2013-05-02 06:52:00,
2013-05-02 02:57:00,57.6,33.4,30.27,ESE,112,0.0,0.0,40,0.00,,,0.00,meteohub,2013-05-02 06:57:00,
2013-05-02 03:02:00,57.4,33.3,30.27,ESE,112,0.0,0.0,40,0.00,,,0.00,meteohub,2013-05-02 07:02:00,
2013-05-02 03:07:00,57.2,33.1,30.27,ESE,112,0.0,0.0,40,0.00,,,0.00,meteohub,2013-05-02 07:07:00,
2013-05-02 03:12:00,57.2,33.1,30.27,ESE,112,0.0,0.0,40,0.00,,,0.00,meteohub,2013-05-02 07:12:00,
2013-05-02 03:17:00,57.0,33.6,30.27,ESE,112,0.0,0.0,41,0.00,,,0.00,meteohub,2013-05-02 07:17:00,
2013-05-02 03:22:00,56.8,33.4,30.27,ESE,112,0.0,0.0,41,0.00,,,0.00,meteohub,2013-05-02 07:22:00,
2013-05-02 03:27:00,56.8,34.0,30.27,ESE,112,0.0,0.0,42,0.00,,,0.00,meteohub,2013-05-02 07:27:00,
2013-05-02 03:32:00,56.8,34.0,30.27,ESE,112,0.0,0.0,42,0.00,,,0.00,meteohub,2013-05-02 07:32:00,
2013-05-02 03:37:00,56.8,34.0,30.27,ESE,112,0.0,0.0,42,0.00,,,0.00,meteohub,2013-05-02 07:37:00,
2013-05-02 03:42:00,56.7,34.5,30.27,ESE,112,0.0,0.0,43,0.00,,,0.00,meteohub,2013-05-02 07:42:00,
2013-05-02 03:47:00,56.7,34.5,30.27,ESE,112,0.0,0.0,43,0.00,,,0.00,meteohub,2013-05-02 07:47:00,
2013-05-02 03:52:00,56.7,34.5,30.27,ESE,112,0.0,0.0,43,0.00,,,0.00,meteohub,2013-05-02 07:52:00,
2013-05-02 03:57:00,56.5,34.3,30.27,ESE,112,0.0,0.0,43,0.00,,,0.00,meteohub,2013-05-02 07:57:00,
2013-05-02 04:02:00,56.3,34.2,30.27,ESE,112,0.0,0.0,43,0.00,,,0.00,meteohub,2013-05-02 08:02:00,
2013-05-02 04:07:00,56.3,34.2,30.27,ESE,112,0.0,0.0,43,0.00,,,0.00,meteohub,2013-05-02 08:07:00,
2013-05-02 04:12:00,56.1,34.0,30.27,ESE,112,0.0,0.0,43,0.00,,,0.00,meteohub,2013-05-02 08:12:00,
2013-05-02 04:17:00,56.1,34.0,30.27,ESE,112,0.0,0.0,43,0.00,,,0.00,meteohub,2013-05-02 08:17:00,
2013-05-02 04:22:00,55.9,33.8,30.27,ESE,112,0.0,0.0,43,0.00,,,0.00,meteohub,2013-05-02 08:22:00,
2013-05-02 04:27:00,55.9,34.3,30.27,East,90,0.0,0.0,44,0.00,,,0.00,meteohub,2013-05-02 08:27:00,
2013-05-02 04:32:00,55.8,33.6,30.27,East,90,0.0,0.0,43,0.00,,,0.00,meteohub,2013-05-02 08:32:00,
2013-05-02 04:37:00,55.8,34.2,30.27,East,90,0.0,0.0,44,0.00,,,0.00,meteohub,2013-05-02 08:37:00,
2013-05-02 04:42:00,55.6,34.0,30.27,East,90,0.0,0.0,44,0.00,,,0.00,meteohub,2013-05-02 08:42:00,
2013-05-02 04:47:00,55.6,34.0,30.27,East,90,0.0,0.0,44,0.00,,,0.00,meteohub,2013-05-02 08:47:00,
2013-05-02 04:52:00,55.6,33.4,30.27,NE,45,0.0,0.0,43,0.00,,,0.00,meteohub,2013-05-02 08:52:00,
2013-05-02 04:57:00,55.6,34.0,30.27,NE,45,0.0,0.0,44,0.00,,,0.00,meteohub,2013-05-02 08:57:00,
2013-05-02 05:02:00,55.4,33.8,30.27,ENE,68,0.0,0.0,44,0.00,,,0.00,meteohub,2013-05-02 09:02:00,
2013-05-02 05:07:00,55.4,34.5,30.27,ENE,68,0.0,0.0,45,0.00,,,0.00,meteohub,2013-05-02 09:07:00,
2013-05-02 05:12:00,55.4,34.5,30.27,ENE,68,0.0,0.0,45,0.00,,,0.00,meteohub,2013-05-02 09:12:00,
2013-05-02 05:17:00,55.4,34.5,30.27,ENE,68,0.0,0.0,45,0.00,,,0.00,meteohub,2013-05-02 09:17:00,
2013-05-02 05:22:00,55.2,34.3,30.27,ENE,68,0.0,0.0,45,0.00,,,0.00,meteohub,2013-05-02 09:22:00,
2013-05-02 05:27:00,55.0,34.7,30.27,ENE,68,0.0,0.0,46,0.00,,,0.00,meteohub,2013-05-02 09:27:00,
2013-05-02 05:32:00,55.0,34.7,30.27,ENE,68,0.0,0.0,46,0.00,,,0.00,meteohub,2013-05-02 09:32:00,
2013-05-02 05:37:00,55.0,34.7,30.27,ENE,68,0.0,0.0,46,0.00,,,0.00,meteohub,2013-05-02 09:37:00,
2013-05-02 05:42:00,54.9,34.5,30.27,East,90,0.0,0.0,46,0.00,,,0.00,meteohub,2013-05-02 09:42:00,
2013-05-02 05:47:00,54.9,34.5,30.27,East,90,0.0,0.0,46,0.00,,,0.00,meteohub,2013-05-02 09:47:00,
2013-05-02 05:52:00,54.9,34.5,30.27,East,90,0.0,0.0,46,0.00,,,0.00,meteohub,2013-05-02 09:52:00,
2013-05-02 05:57:00,54.7,34.3,30.27,East,90,0.0,0.0,46,0.00,,,0.00,meteohub,2013-05-02 09:57:00,
2013-05-02 06:02:00,54.7,34.3,30.27,East,90,0.0,0.0,46,0.00,,,0.00,meteohub,2013-05-02 10:02:00,
2013-05-02 06:07:00,54.7,33.8,30.27,East,90,0.0,0.0,45,0.00,,,0.00,meteohub,2013-05-02 10:07:00,
2013-05-02 06:12:00,54.7,34.3,30.27,ENE,68,0.0,0.0,46,0.00,,,0.00,meteohub,2013-05-02 10:12:00,
2013-05-02 06:17:00,54.7,34.3,30.27,ESE,112,0.0,0.0,46,0.00,,,0.00,meteohub,2013-05-02 10:17:00,
2013-05-02 06:22:00,54.7,34.3,30.27,ESE,112,0.0,0.0,46,0.00,,,0.00,meteohub,2013-05-02 10:22:00,
2013-05-02 06:27:00,54.5,34.2,30.27,NE,45,0.0,0.0,46,0.00,,,0.00,meteohub,2013-05-02 10:27:00,
2013-05-02 06:32:00,54.5,34.2,30.27,East,90,0.0,0.0,46,0.00,,,0.00,meteohub,2013-05-02 10:32:00,
2013-05-02 06:37:00,54.7,34.9,30.30,East,90,0.0,0.0,47,0.00,,,0.00,meteohub,2013-05-02 10:37:00,
2013-05-02 06:42:00,54.7,34.9,30.30,East,90,0.0,0.0,47,0.00,,,0.00,meteohub,2013-05-02 10:42:00,
2013-05-02 06:47:00,54.5,34.7,30.27,East,90,0.0,0.0,47,0.00,,,0.00,meteohub,2013-05-02 10:47:00,
2013-05-02 06:52:00,54.5,34.7,30.27,East,90,0.0,0.0,47,0.00,,,0.00,meteohub,2013-05-02 10:52:00,
2013-05-02 06:57:00,54.7,34.9,30.27,East,90,0.0,0.0,47,0.00,,,0.00,meteohub,2013-05-02 10:57:00,
2013-05-02 07:02:00,54.9,35.6,30.24,East,90,0.0,0.0,48,0.00,,,0.00,meteohub,2013-05-02 11:02:00,
2013-05-02 07:07:00,55.2,35.4,30.24,South,180,0.0,0.0,47,0.00,,,0.00,meteohub,2013-05-02 11:07:00,
2013-05-02 07:12:00,55.8,35.8,30.24,East,90,0.0,0.0,47,0.00,,,0.00,meteohub,2013-05-02 11:12:00,
2013-05-02 07:17:00,55.9,36.0,30.24,ENE,68,0.0,0.0,47,0.00,,,0.00,meteohub,2013-05-02 11:17:00,
2013-05-02 07:22:00,56.3,36.3,30.24,ENE,68,0.0,0.0,47,0.00,,,0.00,meteohub,2013-05-02 11:22:00,
2013-05-02 07:28:00,57.2,36.7,30.24,ESE,112,0.0,0.0,46,0.00,,,0.00,meteohub,2013-05-02 11:28:00,
2013-05-02 07:33:00,57.9,36.7,30.27,East,90,0.0,0.0,45,0.00,,,0.00,meteohub,2013-05-02 11:33:00,
2013-05-02 07:38:00,58.5,34.3,30.27,East,90,0.0,0.0,40,0.00,,,0.00,meteohub,2013-05-02 11:38:00,
2013-05-02 07:43:00,59.0,34.2,30.27,East,90,0.0,0.0,39,0.00,,,0.00,meteohub,2013-05-02 11:43:00,
2013-05-02 07:48:00,59.7,32.7,30.27,East,90,0.0,0.0,36,0.00,,,0.00,meteohub,2013-05-02 11:48:00,
2013-05-02 07:53:00,59.9,32.2,30.27,ESE,112,0.0,0.0,35,0.00,,,0.00,meteohub,2013-05-02 11:53:00,
2013-05-02 07:58:00,60.1,30.2,30.27,East,90,0.0,4.0,32,0.00,,,0.00,meteohub,2013-05-02 11:58:00,
2013-05-02 08:03:00,60.3,28.8,30.27,North,0,0.0,4.0,30,0.00,,,0.00,meteohub,2013-05-02 12:03:00,
2013-05-02 08:08:00,60.3,27.1,30.27,SE,135,3.0,4.0,28,0.00,,,0.00,meteohub,2013-05-02 12:08:00,
2013-05-02 08:13:00,60.6,27.3,30.27,ENE,68,0.0,4.0,28,0.00,,,0.00,meteohub,2013-05-02 12:13:00,
2013-05-02 08:18:00,61.0,27.7,30.27,ESE,112,0.0,4.0,28,0.00,,,0.00,meteohub,2013-05-02 12:18:00,
2013-05-02 08:23:00,61.2,27.0,30.27,ENE,68,0.0,3.0,27,0.00,,,0.00,meteohub,2013-05-02 12:23:00,
2013-05-02 08:29:00,61.7,25.5,30.27,ESE,112,0.0,4.0,25,0.00,,,0.00,meteohub,2013-05-02 12:29:00,
2013-05-02 08:34:00,61.9,25.7,30.24,SE,135,0.0,4.0,25,0.00,,,0.00,meteohub,2013-05-02 12:34:00,
2013-05-02 08:39:00,62.2,25.0,30.24,SSE,158,0.0,4.0,24,0.00,,,0.00,meteohub,2013-05-02 12:39:00,
2013-05-02 08:44:00,63.0,25.7,30.24,ESE,112,0.0,3.0,24,0.00,,,0.00,meteohub,2013-05-02 12:44:00,
2013-05-02 08:49:00,63.3,25.0,30.24,SE,135,1.0,4.0,23,0.00,,,0.00,meteohub,2013-05-02 12:49:00,
2013-05-02 08:54:00,63.9,25.3,30.24,ESE,112,1.0,6.0,23,0.00,,,0.00,meteohub,2013-05-02 12:54:00,
2013-05-02 08:59:00,64.4,22.5,30.24,ESE,112,2.0,6.0,20,0.00,,,0.00,meteohub,2013-05-02 12:59:00,
2013-05-02 09:04:00,65.1,26.4,30.27,ESE,112,4.0,5.0,23,0.00,,,0.00,meteohub,2013-05-02 13:04:00,
2013-05-02 09:09:00,65.3,23.2,30.27,ESE,112,2.0,4.0,20,0.00,,,0.00,meteohub,2013-05-02 13:09:00,
2013-05-02 09:14:00,65.5,20.8,30.27,NE,45,2.0,5.0,18,0.00,,,0.00,meteohub,2013-05-02 13:14:00,
2013-05-02 09:19:00,65.7,23.5,30.27,ENE,68,3.0,5.0,20,0.00,,,0.00,meteohub,2013-05-02 13:19:00,
2013-05-02 09:24:00,66.0,21.4,30.27,East,90,3.0,6.0,18,0.00,,,0.00,meteohub,2013-05-02 13:24:00,
2013-05-02 09:29:00,66.4,20.3,30.27,SE,135,0.0,6.0,17,0.00,,,0.00,meteohub,2013-05-02 13:29:00,
2013-05-02 09:35:00,66.6,24.3,30.24,SW,225,0.0,5.0,20,0.00,,,0.00,meteohub,2013-05-02 13:35:00,
2013-05-02 09:40:00,67.1,20.8,30.24,ESE,112,3.0,4.0,17,0.00,,,0.00,meteohub,2013-05-02 13:40:00,
2013-05-02 09:45:00,67.3,21.0,30.24,SSW,202,3.0,4.0,17,0.00,,,0.00,meteohub,2013-05-02 13:45:00,
2013-05-02 09:50:00,67.5,21.2,30.27,ESE,112,4.0,5.0,17,0.00,,,0.00,meteohub,2013-05-02 13:50:00,
2013-05-02 09:55:00,67.6,21.4,30.27,SE,135,0.0,5.0,17,0.00,,,0.00,meteohub,2013-05-02 13:55:00,
2013-05-02 10:00:00,68.0,21.6,30.27,East,90,0.0,5.0,17,0.00,,,0.00,meteohub,2013-05-02 14:00:00,
2013-05-02 10:05:00,68.5,22.1,30.24,WSW,248,2.0,5.0,17,0.00,,,0.00,meteohub,2013-05-02 14:05:00,
2013-05-02 10:10:00,68.9,22.3,30.24,ENE,68,4.0,4.0,17,0.00,,,0.00,meteohub,2013-05-02 14:10:00,
2013-05-02 10:15:00,68.9,22.3,30.24,SSE,158,0.0,6.0,17,0.00,,,0.00,meteohub,2013-05-02 14:15:00,
2013-05-02 10:20:00,69.1,22.5,30.24,East,90,2.0,6.0,17,0.00,,,0.00,meteohub,2013-05-02 14:20:00,
2013-05-02 10:25:00,69.4,22.8,30.24,ENE,68,2.0,6.0,17,0.00,,,0.00,meteohub,2013-05-02 14:25:00,
2013-05-02 10:30:00,69.8,23.0,30.27,NNW,338,0.0,5.0,17,0.00,,,0.00,meteohub,2013-05-02 14:30:00,
2013-05-02 10:36:00,70.7,23.9,30.27,East,90,0.0,5.0,17,0.00,,,0.00,meteohub,2013-05-02 14:36:00,
2013-05-02 10:41:00,70.9,23.9,30.27,ESE,112,2.0,4.0,17,0.00,,,0.00,meteohub,2013-05-02 14:41:00,
2013-05-02 10:46:00,71.2,24.3,30.24,SW,225,0.0,5.0,17,0.00,,,0.00,meteohub,2013-05-02 14:46:00,
2013-05-02 10:51:00,71.8,23.2,30.24,ESE,112,2.0,5.0,16,0.00,,,0.00,meteohub,2013-05-02 14:51:00,
2013-05-02 10:56:00,72.0,23.4,30.24,East,90,1.0,5.0,16,0.00,,,0.00,meteohub,2013-05-02 14:56:00,
2013-05-02 11:01:00,72.1,23.5,30.24,ESE,112,2.0,3.0,16,0.00,,,0.00,meteohub,2013-05-02 15:01:00,
2013-05-02 11:10:00,72.9,24.1,30.24,WSW,248,0.0,4.0,16,0.00,,,0.00,meteohub,2013-05-02 15:10:00,
2013-05-02 11:15:00,73.4,24.6,30.27,SW,225,2.0,3.0,16,0.00,,,0.00,meteohub,2013-05-02 15:15:00,
2013-05-02 11:21:00,73.6,24.6,30.27,ESE,112,5.0,5.0,16,0.00,,,0.00,meteohub,2013-05-02 15:21:00,
2013-05-02 11:26:00,73.6,24.6,30.27,WSW,248,3.0,7.0,16,0.00,,,0.00,meteohub,2013-05-02 15:26:00,
2013-05-02 11:31:00,73.9,25.0,30.27,East,90,0.0,7.0,16,0.00,,,0.00,meteohub,2013-05-02 15:31:00,
2013-05-02 11:36:00,74.5,25.3,30.27,ESE,112,0.0,7.0,16,0.00,,,0.00,meteohub,2013-05-02 15:36:00,
2013-05-02 11:41:00,74.8,25.7,30.27,SSE,158,0.0,6.0,16,0.00,,,0.00,meteohub,2013-05-02 15:41:00,
2013-05-02 11:46:00,75.0,25.9,30.27,SSE,158,0.0,4.0,16,0.00,,,0.00,meteohub,2013-05-02 15:46:00,
2013-05-02 11:51:00,74.5,25.3,30.24,SSE,158,3.0,8.0,16,0.00,,,0.00,meteohub,2013-05-02 15:51:00,
2013-05-02 11:56:00,74.8,25.7,30.24,SE,135,0.0,8.0,16,0.00,,,0.00,meteohub,2013-05-02 15:56:00,
2013-05-02 12:01:00,75.2,24.4,30.27,WNW,292,4.0,8.0,15,0.00,,,0.00,meteohub,2013-05-02 16:01:00,
2013-05-02 12:06:00,75.2,24.4,30.27,ESE,112,3.0,6.0,15,0.00,,,0.00,meteohub,2013-05-02 16:06:00,
2013-05-02 12:11:00,75.4,24.6,30.27,WSW,248,0.0,6.0,15,0.00,,,0.00,meteohub,2013-05-02 16:11:00,
2013-05-02 12:16:00,75.7,24.8,30.27,SW,225,2.0,6.0,15,0.00,,,0.00,meteohub,2013-05-02 16:16:00,
2013-05-02 12:21:00,75.4,24.6,30.27,ESE,112,1.0,6.0,15,0.00,,,0.00,meteohub,2013-05-02 16:21:00,
2013-05-02 12:27:00,75.6,24.8,30.27,SSW,202,0.0,6.0,15,0.00,,,0.00,meteohub,2013-05-02 16:27:00,
2013-05-02 12:32:00,75.7,24.8,30.27,ENE,68,1.0,6.0,15,0.00,,,0.00,meteohub,2013-05-02 16:32:00,
2013-05-02 12:37:00,75.7,24.8,30.27,SSE,158,0.0,6.0,15,0.00,,,0.00,meteohub,2013-05-02 16:37:00,
2013-05-02 12:42:00,76.3,25.3,30.27,ESE,112,5.0,5.0,15,0.00,,,0.00,meteohub,2013-05-02 16:42:00,
2013-05-02 12:47:00,76.5,25.5,30.27,East,90,0.0,6.0,15,0.00,,,0.00,meteohub,2013-05-02 16:47:00,
2013-05-02 12:55:00,76.5,22.1,-100.00,North,-999,-999.0,7.0,13,0.00,,,0.00,meteohub,2013-05-02 16:55:00,
2013-05-02 13:01:00,76.5,25.5,30.27,ESE,112,4.0,6.0,15,0.00,,,0.00,meteohub,2013-05-02 17:01:00,
2013-05-02 13:06:00,76.8,25.7,30.27,East,90,0.0,6.0,15,0.00,,,0.00,meteohub,2013-05-02 17:06:00,
2013-05-02 13:11:00,76.8,25.7,30.27,SW,225,2.0,6.0,15,0.00,,,0.00,meteohub,2013-05-02 17:11:00,
2013-05-02 13:16:00,77.7,23.0,30.27,WSW,248,0.0,5.0,13,0.00,,,0.00,meteohub,2013-05-02 17:16:00,
2013-05-02 13:21:00,77.7,23.0,30.24,ESE,112,4.0,6.0,13,0.00,,,0.00,meteohub,2013-05-02 17:21:00,
2013-05-02 13:26:00,77.7,23.0,30.24,ENE,68,6.0,8.0,13,0.00,,,0.00,meteohub,2013-05-02 17:26:00,
2013-05-02 13:31:00,77.7,26.4,30.24,East,90,3.0,8.0,15,0.00,,,0.00,meteohub,2013-05-02 17:31:00,
2013-05-02 13:36:00,77.9,26.6,30.24,SSE,158,2.0,8.0,15,0.00,,,0.00,meteohub,2013-05-02 17:36:00,
2013-05-02 13:41:00,78.1,23.4,30.24,ESE,112,5.0,6.0,13,0.00,,,0.00,meteohub,2013-05-02 17:41:00,
2013-05-02 13:46:00,78.4,23.5,30.24,SW,225,3.0,6.0,13,0.00,,,0.00,meteohub,2013-05-02 17:46:00,
2013-05-02 13:51:00,78.3,23.5,30.24,South,180,0.0,6.0,13,0.00,,,0.00,meteohub,2013-05-02 17:51:00,
2013-05-02 13:56:00,78.6,23.7,30.24,ESE,112,4.0,7.0,13,0.00,,,0.00,meteohub,2013-05-02 17:56:00,
2013-05-02 14:02:00,78.4,23.5,30.21,SSE,158,2.0,7.0,13,0.00,,,0.00,meteohub,2013-05-02 18:02:00,
2013-05-02 14:07:00,78.6,27.1,30.21,East,90,0.0,6.0,15,0.00,,,0.00,meteohub,2013-05-02 18:07:00,
2013-05-02 14:12:00,78.6,23.7,30.21,ENE,68,3.0,6.0,13,0.00,,,0.00,meteohub,2013-05-02 18:12:00,
2013-05-02 14:17:00,78.4,27.0,30.21,SE,135,3.0,8.0,15,0.00,,,0.00,meteohub,2013-05-02 18:17:00,
2013-05-02 14:22:00,78.1,23.4,30.21,SSE,158,2.0,8.0,13,0.00,,,0.00,meteohub,2013-05-02 18:22:00,
2013-05-02 14:27:00,78.4,27.0,30.21,ENE,68,2.0,8.0,15,0.00,,,0.00,meteohub,2013-05-02 18:27:00,
2013-05-02 14:32:00,78.1,26.8,30.21,SSE,158,5.0,6.0,15,0.00,,,0.00,meteohub,2013-05-02 18:32:00,
2013-05-02 14:37:00,78.1,26.8,30.21,ESE,112,3.0,7.0,15,0.00,,,0.00,meteohub,2013-05-02 18:37:00,
2013-05-02 14:42:00,77.7,26.4,30.21,ESE,112,5.0,7.0,15,0.00,,,0.00,meteohub,2013-05-02 18:42:00,
2013-05-02 14:47:00,77.9,26.6,30.21,ESE,112,3.0,10.0,15,0.00,,,0.00,meteohub,2013-05-02 18:47:00,
2013-05-02 14:52:00,78.4,27.0,30.21,SSE,158,0.0,10.0,15,0.00,,,0.00,meteohub,2013-05-02 18:52:00,
2013-05-02 14:57:00,78.1,26.8,30.21,ENE,68,2.0,10.0,15,0.00,,,0.00,meteohub,2013-05-02 18:57:00,
2013-05-02 15:02:00,78.1,23.4,30.21,East,90,4.0,6.0,13,0.00,,,0.00,meteohub,2013-05-02 19:02:00,
2013-05-02 15:07:00,78.3,27.0,30.21,ESE,112,1.0,7.0,15,0.00,,,0.00,meteohub,2013-05-02 19:07:00,
2013-05-02 15:12:00,78.6,23.7,30.21,East,90,6.0,7.0,13,0.00,,,0.00,meteohub,2013-05-02 19:12:00,
2013-05-02 15:17:00,78.1,23.4,30.21,South,180,4.0,8.0,13,0.00,,,0.00,meteohub,2013-05-02 19:17:00,
2013-05-02 15:22:00,77.4,22.8,30.21,ENE,68,0.0,9.0,13,0.00,,,0.00,meteohub,2013-05-02 19:22:00,
2013-05-02 15:27:00,77.9,23.2,30.21,ENE,68,2.0,9.0,13,0.00,,,0.00,meteohub,2013-05-02 19:27:00,
2013-05-02 15:32:00,77.7,23.0,30.24,ESE,112,3.0,9.0,13,0.00,,,0.00,meteohub,2013-05-02 19:32:00,
2013-05-02 15:38:00,77.7,23.0,30.24,ESE,112,2.0,9.0,13,0.00,,,0.00,meteohub,2013-05-02 19:38:00,
2013-05-02 15:43:00,77.5,22.8,30.24,ENE,68,5.0,8.0,13,0.00,,,0.00,meteohub,2013-05-02 19:43:00,
2013-05-02 15:48:00,77.2,22.6,30.21,ESE,112,6.0,8.0,13,0.00,,,0.00,meteohub,2013-05-02 19:48:00,
2013-05-02 15:53:00,77.4,22.8,30.21,ESE,112,5.0,9.0,13,0.00,,,0.00,meteohub,2013-05-02 19:53:00,
2013-05-02 15:58:00,77.5,22.8,30.21,SE,135,2.0,9.0,13,0.00,,,0.00,meteohub,2013-05-02 19:58:00,
2013-05-02 16:03:00,77.5,22.8,30.18,ESE,112,5.0,10.0,13,0.00,,,0.00,meteohub,2013-05-02 20:03:00,
2013-05-02 16:08:00,77.9,23.2,30.18,NNE,22,0.0,10.0,13,0.00,,,0.00,meteohub,2013-05-02 20:08:00,
2013-05-02 16:13:00,78.3,23.5,30.18,SSE,158,3.0,10.0,13,0.00,,,0.00,meteohub,2013-05-02 20:13:00,
2013-05-02 16:18:00,78.6,23.7,30.18,SSE,158,4.0,10.0,13,0.00,,,0.00,meteohub,2013-05-02 20:18:00,
2013-05-02 16:23:00,78.6,23.7,30.18,ESE,112,3.0,6.0,13,0.00,,,0.00,meteohub,2013-05-02 20:23:00,
2013-05-02 16:28:00,77.9,23.2,30.18,ESE,112,6.0,7.0,13,0.00,,,0.00,meteohub,2013-05-02 20:28:00,
2013-05-02 16:33:00,78.1,23.4,30.18,SSE,158,0.0,10.0,13,0.00,,,0.00,meteohub,2013-05-02 20:33:00,
2013-05-02 16:38:00,78.3,23.5,30.18,SE,135,3.0,10.0,13,0.00,,,0.00,meteohub,2013-05-02 20:38:00,
2013-05-02 16:44:00,78.4,23.5,30.18,SSW,202,3.0,10.0,13,0.00,,,0.00,meteohub,2013-05-02 20:44:00,
2013-05-02 16:49:00,78.4,23.5,30.18,East,90,4.0,10.0,13,0.00,,,0.00,meteohub,2013-05-02 20:49:00,
2013-05-02 16:54:00,78.6,23.7,30.18,South,180,3.0,6.0,13,0.00,,,0.00,meteohub,2013-05-02 20:54:00,
2013-05-02 16:59:00,78.6,23.7,30.18,East,90,4.0,6.0,13,0.00,,,0.00,meteohub,2013-05-02 20:59:00,
2013-05-02 17:04:00,78.4,23.5,30.18,SE,135,3.0,6.0,13,0.00,,,0.00,meteohub,2013-05-02 21:04:00,
2013-05-02 17:09:00,78.3,23.5,30.18,SE,135,5.0,8.0,13,0.00,,,0.00,meteohub,2013-05-02 21:09:00,
2013-05-02 17:14:00,77.9,23.2,30.18,ESE,112,4.0,11.0,13,0.00,,,0.00,meteohub,2013-05-02 21:14:00,
2013-05-02 17:19:00,78.3,23.5,30.15,East,90,2.0,11.0,13,0.00,,,0.00,meteohub,2013-05-02 21:19:00,
2013-05-02 17:24:00,78.1,23.4,30.15,ESE,112,6.0,11.0,13,0.00,,,0.00,meteohub,2013-05-02 21:24:00,
2013-05-02 17:29:00,77.7,23.0,30.15,ESE,112,2.0,8.0,13,0.00,,,0.00,meteohub,2013-05-02 21:29:00,
2013-05-02 17:34:00,78.1,23.4,30.15,SE,135,0.0,8.0,13,0.00,,,0.00,meteohub,2013-05-02 21:34:00,
2013-05-02 17:39:00,77.9,23.2,30.15,WSW,248,4.0,7.0,13,0.00,,,0.00,meteohub,2013-05-02 21:39:00,
2013-05-02 17:44:00,77.5,22.8,30.15,SSE,158,1.0,6.0,13,0.00,,,0.00,meteohub,2013-05-02 21:44:00,
2013-05-02 17:50:00,77.9,23.2,30.15,ENE,68,3.0,6.0,13,0.00,,,0.00,meteohub,2013-05-02 21:50:00,
2013-05-02 17:55:00,78.1,23.4,30.15,South,180,2.0,7.0,13,0.00,,,0.00,meteohub,2013-05-02 21:55:00,
2013-05-02 18:00:00,77.9,23.2,30.15,East,90,5.0,6.0,13,0.00,,,0.00,meteohub,2013-05-02 22:00:00,
2013-05-02 18:05:00,77.4,22.8,30.15,ENE,68,4.0,7.0,13,0.00,,,0.00,meteohub,2013-05-02 22:05:00,
2013-05-02 18:10:00,76.8,22.3,30.15,WSW,248,4.0,12.0,13,0.00,,,0.00,meteohub,2013-05-02 22:10:00,
2013-05-02 18:15:00,76.6,22.1,30.15,SSE,158,6.0,12.0,13,0.00,,,0.00,meteohub,2013-05-02 22:15:00,
2013-05-02 18:20:00,76.5,22.1,30.15,ESE,112,2.0,12.0,13,0.00,,,0.00,meteohub,2013-05-02 22:20:00,
2013-05-02 18:25:00,76.6,22.1,30.15,ENE,68,3.0,10.0,13,0.00,,,0.00,meteohub,2013-05-02 22:25:00,
2013-05-02 18:30:00,76.6,22.1,30.15,SSE,158,0.0,10.0,13,0.00,,,0.00,meteohub,2013-05-02 22:30:00,
2013-05-02 18:35:00,76.3,21.9,30.15,East,90,5.0,9.0,13,0.00,,,0.00,meteohub,2013-05-02 22:35:00,
2013-05-02 18:40:00,76.1,21.7,30.15,East,90,3.0,8.0,13,0.00,,,0.00,meteohub,2013-05-02 22:40:00,
2013-05-02 18:45:00,76.1,21.7,30.12,SSE,158,3.0,8.0,13,0.00,,,0.00,meteohub,2013-05-02 22:45:00,
2013-05-02 18:50:00,76.1,21.7,30.12,ESE,112,3.0,9.0,13,0.00,,,0.00,meteohub,2013-05-02 22:50:00,
2013-05-02 18:55:00,75.9,21.6,30.12,SE,135,4.0,10.0,13,0.00,,,0.00,meteohub,2013-05-02 22:55:00,
2013-05-02 19:01:00,75.7,21.6,30.15,ESE,112,3.0,10.0,13,0.00,,,0.00,meteohub,2013-05-02 23:01:00,
2013-05-02 19:06:00,75.0,20.8,30.15,ESE,112,0.0,10.0,13,0.00,,,0.00,meteohub,2013-05-02 23:06:00,
2013-05-02 19:11:00,74.7,20.7,30.15,SE,135,6.0,7.0,13,0.00,,,0.00,meteohub,2013-05-02 23:11:00,
2013-05-02 19:16:00,74.7,20.7,30.12,ESE,112,4.0,6.0,13,0.00,,,0.00,meteohub,2013-05-02 23:16:00,
2013-05-02 19:21:00,74.5,20.5,30.12,East,90,5.0,7.0,13,0.00,,,0.00,meteohub,2013-05-02 23:21:00,
2013-05-02 19:26:00,74.5,20.5,30.12,ESE,112,4.0,7.0,13,0.00,,,0.00,meteohub,2013-05-02 23:26:00,
2013-05-02 19:31:00,74.3,20.3,30.12,East,90,7.0,7.0,13,0.00,,,0.00,meteohub,2013-05-02 23:31:00,
2013-05-02 19:36:00,74.3,20.3,30.12,SSW,202,1.0,8.0,13,0.00,,,0.00,meteohub,2013-05-02 23:36:00,
2013-05-02 19:41:00,73.9,20.1,30.12,SE,135,3.0,8.0,13,0.00,,,0.00,meteohub,2013-05-02 23:41:00,
2013-05-02 19:46:00,73.8,19.9,30.15,ESE,112,4.0,9.0,13,0.00,,,0.00,meteohub,2013-05-02 23:46:00,
2013-05-02 19:51:00,73.8,19.9,30.15,East,90,3.0,9.0,13,0.00,,,0.00,meteohub,2013-05-02 23:51:00,
2013-05-02 19:56:00,73.6,19.8,30.15,SE,135,3.0,9.0,13,0.00,,,0.00,meteohub,2013-05-02 23:56:00,
2013-05-02 20:01:00,73.2,21.2,30.12,ESE,112,0.0,6.0,14,0.00,,,0.00,meteohub,2013-05-03 00:01:00,
2013-05-02 20:07:00,73.0,21.0,30.12,SSE,158,2.0,6.0,14,0.00,,,0.00,meteohub,2013-05-03 00:07:00,
2013-05-02 20:12:00,72.9,21.0,30.12,SSE,158,0.0,6.0,14,0.00,,,0.00,meteohub,2013-05-03 00:12:00,
2013-05-02 20:17:00,72.5,20.7,30.15,SSE,158,3.0,5.0,14,0.00,,,0.00,meteohub,2013-05-03 00:17:00,
2013-05-02 20:22:00,72.3,20.5,30.15,ESE,112,4.0,5.0,14,0.00,,,0.00,meteohub,2013-05-03 00:22:00,
2013-05-02 20:27:00,71.8,20.1,30.15,SSE,158,3.0,6.0,14,0.00,,,0.00,meteohub,2013-05-03 00:27:00,
2013-05-02 20:32:00,71.4,19.8,30.15,ESE,112,0.0,6.0,14,0.00,,,0.00,meteohub,2013-05-03 00:32:00,
2013-05-02 20:37:00,70.9,19.4,30.15,East,90,1.0,6.0,14,0.00,,,0.00,meteohub,2013-05-03 00:37:00,
2013-05-02 20:42:00,70.5,19.0,30.15,SSE,158,2.0,5.0,14,0.00,,,0.00,meteohub,2013-05-03 00:42:00,
2013-05-02 20:47:00,70.2,18.9,30.15,SSE,158,1.0,5.0,14,0.00,,,0.00,meteohub,2013-05-03 00:47:00,
2013-05-02 20:52:00,69.8,18.5,30.15,ENE,68,3.0,4.0,14,0.00,,,0.00,meteohub,2013-05-03 00:52:00,
2013-05-02 20:57:00,69.6,19.9,30.15,SSE,158,2.0,6.0,15,0.00,,,0.00,meteohub,2013-05-03 00:57:00,
2013-05-02 21:02:00,69.3,19.8,30.12,ESE,112,3.0,6.0,15,0.00,,,0.00,meteohub,2013-05-03 01:02:00,
2013-05-02 21:07:00,68.9,19.4,30.12,SSE,158,0.0,6.0,15,0.00,,,0.00,meteohub,2013-05-03 01:07:00,
2013-05-02 21:12:00,68.7,19.2,30.12,SSE,158,0.0,4.0,15,0.00,,,0.00,meteohub,2013-05-03 01:12:00,
2013-05-02 21:17:00,68.5,19.2,30.12,ESE,112,0.0,4.0,15,0.00,,,0.00,meteohub,2013-05-03 01:17:00,
2013-05-02 21:22:00,68.4,19.0,30.15,ESE,112,1.0,4.0,15,0.00,,,0.00,meteohub,2013-05-03 01:22:00,
2013-05-02 21:27:00,68.2,18.9,30.15,SE,135,0.0,4.0,15,0.00,,,0.00,meteohub,2013-05-03 01:27:00,
2013-05-02 21:32:00,67.8,18.5,30.15,SSE,158,0.0,4.0,15,0.00,,,0.00,meteohub,2013-05-03 01:32:00,
2013-05-02 21:37:00,67.8,18.5,30.15,ESE,112,0.0,3.0,15,0.00,,,0.00,meteohub,2013-05-03 01:37:00,
2013-05-02 21:42:00,67.5,18.3,30.15,SSE,158,0.0,3.0,15,0.00,,,0.00,meteohub,2013-05-03 01:42:00,
2013-05-02 21:47:00,67.5,18.3,30.18,ESE,112,0.0,1.0,15,0.00,,,0.00,meteohub,2013-05-03 01:47:00,
2013-05-02 21:52:00,66.9,17.8,30.18,ESE,112,0.0,1.0,15,0.00,,,0.00,meteohub,2013-05-03 01:52:00,
2013-05-02 21:57:00,66.6,17.6,30.18,ESE,112,2.0,2.0,15,0.00,,,0.00,meteohub,2013-05-03 01:57:00,
2013-05-02 22:02:00,66.6,17.6,30.18,ESE,112,3.0,3.0,15,0.00,,,0.00,meteohub,2013-05-03 02:02:00,
2013-05-02 22:07:00,66.6,17.6,30.18,ESE,112,0.0,4.0,15,0.00,,,0.00,meteohub,2013-05-03 02:07:00,
2013-05-02 22:12:00,66.4,17.4,30.18,ESE,112,0.0,4.0,15,0.00,,,0.00,meteohub,2013-05-03 02:12:00,
2013-05-02 22:17:00,66.2,17.2,30.18,ESE,112,1.0,4.0,15,0.00,,,0.00,meteohub,2013-05-03 02:17:00,
2013-05-02 22:22:00,66.2,17.2,30.18,WSW,248,1.0,3.0,15,0.00,,,0.00,meteohub,2013-05-03 02:22:00,
2013-05-02 22:27:00,66.0,17.1,30.18,ESE,112,0.0,4.0,15,0.00,,,0.00,meteohub,2013-05-03 02:27:00,
2013-05-02 22:32:00,65.8,17.1,30.18,SSE,158,0.0,4.0,15,0.00,,,0.00,meteohub,2013-05-03 02:32:00,
2013-05-02 22:37:00,65.5,16.7,30.18,ENE,68,0.0,4.0,15,0.00,,,0.00,meteohub,2013-05-03 02:37:00,
2013-05-02 22:42:00,65.3,16.5,30.18,SE,135,0.0,2.0,15,0.00,,,0.00,meteohub,2013-05-03 02:42:00,
2013-05-02 22:47:00,65.1,16.3,30.15,ESE,112,0.0,4.0,15,0.00,,,0.00,meteohub,2013-05-03 02:47:00,
2013-05-02 22:52:00,65.1,16.3,30.15,ESE,112,0.0,4.0,15,0.00,,,0.00,meteohub,2013-05-03 02:52:00,
2013-05-02 22:57:00,65.1,16.3,30.15,SE,135,0.0,4.0,15,0.00,,,0.00,meteohub,2013-05-03 02:57:00,
2013-05-02 23:02:00,64.8,16.2,30.15,SSE,158,3.0,3.0,15,0.00,,,0.00,meteohub,2013-05-03 03:02:00,
2013-05-02 23:07:00,64.8,16.2,30.15,South,180,0.0,3.0,15,0.00,,,0.00,meteohub,2013-05-03 03:07:00,
2013-05-02 23:12:00,64.6,16.0,30.15,East,90,3.0,3.0,15,0.00,,,0.00,meteohub,2013-05-03 03:12:00,
2013-05-02 23:17:00,64.6,16.0,30.18,East,90,2.0,3.0,15,0.00,,,0.00,meteohub,2013-05-03 03:17:00,
2013-05-02 23:22:00,64.4,15.8,30.18,ESE,112,4.0,4.0,15,0.00,,,0.00,meteohub,2013-05-03 03:22:00,
2013-05-02 23:27:00,64.6,16.0,30.18,ESE,112,3.0,4.0,15,0.00,,,0.00,meteohub,2013-05-03 03:27:00,
2013-05-02 23:32:00,64.6,16.0,30.15,ESE,112,0.0,5.0,15,0.00,,,0.00,meteohub,2013-05-03 03:32:00,
2013-05-02 23:37:00,64.4,15.8,30.15,ESE,112,1.0,6.0,15,0.00,,,0.00,meteohub,2013-05-03 03:37:00,
2013-05-02 23:42:00,64.2,17.2,30.15,ESE,112,0.0,6.0,16,0.00,,,0.00,meteohub,2013-05-03 03:42:00,
2013-05-02 23:47:00,64.0,17.1,30.15,ENE,68,0.0,6.0,16,0.00,,,0.00,meteohub,2013-05-03 03:47:00,
2013-05-02 23:52:00,64.0,17.1,30.15,ESE,112,0.0,4.0,16,0.00,,,0.00,meteohub,2013-05-03 03:52:00,
2013-05-02 23:57:00,63.9,16.9,30.15,SE,135,0.0,4.0,16,0.00,,,0.00,meteohub,2013-05-03 03:57:00,